Location: *
(49.0044°N, 9.5056°E)
Time: 06:05:23
(UTC+00:00)

Cosmos 2082 - Pass Details

Date: 22 September 2019
Orbit: 834 x 855 km, 71.0° (Epoch: 20 October)

Event Time Altitude Azimuth Distance (km) Brightness Sun altitude
Rises 19:31:09 0° 207° (SSW) 3,413 6.9 -21.4°
Reaches altitude 10° 19:33:35 10° 207° (SSW) 2,481 6.1 -21.8°
Maximum altitude 19:39:18 88° 296° (WNW) 862 3.7 -22.6°
Drops below altitude 10° 19:45:04 10° 28° (NNE) 2,493 6.2 -23.4°
Sets 19:47:31 0° 29° (NNE) 3,430 6.9 -23.8°
